QIANFAN-57

Satellite information

Favourite Embed

Satellite Type and Status

PAYLOADIN ORBIT

Key statistics

Satellite QIANFAN-57 at a glance.

Uptime

229

Days in orbit

Revolutions

≈ 13.5

Per day

Orbit

LEO

Low Earth Orbit

Inclination

89.0

Latest

Satellite identification and parameters

Extended collection of information and parameters for QIANFAN-57.

Object identification

Identified? True

Debris? False

Object name: QIANFAN-57

International designator: 2025-016C

Object number (NORAD): 62787

Object ID (CCSDS): 62787

Country: PEOPLES REPUBLIC OF CHINA (PRC)

Current information (Y/N): Y

RCS size: LARGE

Orbital parameters

Period: 106.591 minutes

Inclination: 88.9793 deg

SMA: 7446.851 km

Apoapsis: 1070.696 km

Periapsis: 1066.736 km

RAAN: 113.0942 deg

Eccentricy: 0.00026593

Argument of periapsis: 74.5524 deg

Mean anomaly: 285.5921 deg

Mean motion: 13.50963959 rev/day

Mean motion (dot): 0.00000125 rev/day2

B* drag term: 0.00017525472 1/REarth

Two-line elements (TLE)

Creation date: Sept. 8, 2025, 3:16 a.m.

Reference frame: TEME

Reference center: EARTH

Epoch: Sept. 7, 2025, 9:52 p.m. UTC

TLE line 0: 0 QIANFAN-57

TLE line 1: 1 62787U 25016C 25250.91147150 .00000125 00000-0 17525-3 0 9997

TLE line 2: 2 62787 88.9793 113.0942 0002659 74.5524 285.5921 13.50963959 34262

Live tracking on map

Real-time ground track for satellite QIANFAN-57.

In-orbit conjunctions

There are no conjunctions computed for QIANFAN-57, at the moment. Check back to stay up to date, as we update our databases every day.

Go to all conjunctions

Associated space launch

18 Low Earth Orbit communication satellites with Ku, Q and V band payloads for the G60 constellation operated by Shanghai Spacecom Satellite Technology (SSST) with funding backed by the Shanghai local government. Initial constellation will consist of 1296 satellites by 2027 with long term plans to expand it to 12000 satellites.

QIANFAN-57 was lifted into orbit during the mission ‘Long March 6A | G60 Polar Group 06’, on board a Long March 6A space rocket.

The launch took place on Jan. 23, 2025, 5:15 a.m. from Launch Complex 9A.

For more information about the launch, click the button.

Launch to space Long March 6A | G60 Polar Group 06
Long March 6A | G60 Polar Group 06

Agency: N/A

Status: Launch Successful

Launch date: Jan. 23, 2025, 5:15 a.m. UTC

Rocket: Long March 6A

Launch pad: Launch Complex 9A

Location: Taiyuan Satellite Launch Center, People's Republic of China

...

Latest news about this satellite

News about space launch
China launches fourth batch of Thousand Sails megaconstellation satellites

HELSINKI — China launched the fourth batch of 18 satellites for the Thousand Sails megaconstellation early Thursday using a Long March 6A rocket. The Long March 6A lifted off at […] The post China launches fourth batch of Thousand Sails megaconstellation...


Newsletter sign-up

Weekly statistics, charts and insights to help you stay on top of the space industry.